Location: Grust
(42.8833°N, 0.0333°W)
Time: 14:24:47
(UTC+00:00)

Cosmos 44 - Pass Details

Date: 25 October 2020
Orbit: 578 x 784 km, 65.1° (Epoch: 25 November)

Event Time Altitude Azimuth Distance (km) Brightness Sun altitude
Rises 18:12:44 0° 216° (SW) 2,838 7.1 -13.6°
Reaches altitude 10° 18:14:55 10° 217° (SW) 1,962 6.2 -14.0°
Maximum altitude 18:19:21 78° 304° (NW) 656 3.2 -14.8°
Drops below altitude 10° 18:24:06 10° 31° (NNE) 2,097 5.5 -15.7°
Enters shadow 18:24:20 - 31° (NNE) 2,189 5.5 -15.8°
